Location: Barcelona
(41.3829°N, 2.1774°E)
Time: 14:12:29
(UTC+00:00)

ISS - Pass Details

Date: 16 July 2024
Orbit: 410 x 424 km, 51.6° (Epoch: 14 July)

Event Time Altitude Azimuth Distance (km) Brightness Sun altitude
Rises 21:00:00 0° 295° (WNW) 2,340 1.3 -15.2°
Reaches altitude 10° 21:02:51 10° 321° (NW) 1,479 0.4 -15.5°
Maximum altitude 21:04:44 14° 356° (N) 1,251 -0.6 -15.7°
Drops below altitude 10° 21:06:36 10° 31° (NNE) 1,480 -0.8 -16.0°
Sets 21:09:27 0° 57° (ENE) 2,344 0.0 -16.3°
